Flag for U.S.A. Weather past 2 weeks in Providence, Rhode Island, U.S.A.

Now
76 °F

Scattered clouds.


Feels Like: 78 °F
Forecast: 59 / 76 °F
Wind: 13 mph from Northeast

Location: Green State Airport

Current Time: Sep 4, 2015 at 1:06:30 PM

Latest Report: Sep 4, 2015 at 11:51 AM


Visibility: 10 mi

Pressure: 30.15 "Hg

Humidity: 54%

Dew point: 58 °F

Location of ProvidenceLocation

Historic Weather in Providence — Graph

°F

Providence temperature yesterday

Maximum temperature yesterday: 88 °F (at 1:51 PM)
Minimum temperature yesterday: 67 °F (at 4:51 AM)
Average temperature yesterday: 78 °F

Past Weeks' High & Low Weather Summary

 TemperatureHumidityPressure
High89 °F (Sep 2, 2:51 PM)97% (Aug 21, 12:51 AM)30.21 "Hg (Aug 21, 12:51 AM)
Low58 °F (Aug 28, 5:51 AM)36% (Aug 30, 3:51 PM)29.82 "Hg (Sep 3, 2:51 PM)
Average75 °F71%30.00 "Hg
* Reported Aug 20 11:51 AM — Sep 4 11:51 AM, Providence, Weather by CustomWeather, © 2015

Note: Actual official high and low records may vary slightly from our data, if they occured in-between our weather recording intervals... More about our weather records

Advertising

Providence weather history for previous 24 hours

 ConditionsComfort  
Time TempWeatherWind HumidityBarometerVisibility
11:51 AM
Fri, Sep 4
76 °FScattered clouds.13 mph54%30.15 "Hg10 mi
10:51 AM75 °FBroken clouds.17 mph58%30.14 "Hg10 mi
9:51 AM70 °FPartly sunny.13 mph68%30.12 "Hg10 mi
8:51 AM70 °FPartly sunny.14 mph68%30.10 "Hg10 mi
7:51 AM68 °FPartly sunny.16 mph76%30.08 "Hg10 mi
6:51 AM70 °FPassing clouds.17 mph81%30.04 "Hg5 mi
5:51 AM71 °FPassing clouds.14 mph84%30.00 "Hg7 mi
4:51 AM73 °FMostly cloudy.8 mph81%29.97 "Hg8 mi
3:51 AM72 °FPassing clouds.6 mph84%29.95 "Hg7 mi
2:51 AM73 °FPassing clouds.8 mph84%29.94 "Hg8 mi
1:51 AM74 °FPassing clouds.6 mph79%29.93 "Hg9 mi
12:51 AM75 °FClear.5 mph82%29.92 "Hg8 mi
11:51 PM
Thu, Sep 3
75 °FFog.7 mph90%29.91 "Hg5 mi
10:51 PM75 °FFog.3 mph90%29.90 "Hg5 mi
9:51 PM76 °FFog.No wind88%29.90 "Hg5 mi
8:51 PM76 °FFog.No wind88%29.88 "Hg6 mi
7:51 PM77 °FPartly sunny.5 mph82%29.85 "Hg8 mi
6:51 PM80 °FPartly sunny.3 mph69%29.84 "Hg7 mi
5:51 PM84 °FPartly sunny.7 mph57%29.84 "Hg8 mi
4:51 PM87 °FPartly sunny.7 mph48%29.83 "Hg9 mi
3:51 PM87 °FPassing clouds.9 mph51%29.83 "Hg8 mi
2:51 PM88 °FPartly sunny.10 mph50%29.82 "Hg8 mi
1:51 PM88 °FPartly sunny.7 mph50%29.83 "Hg8 mi
Weather by CustomWeather, © 2015

See weather overviewHow to use our weather pages